Location: Bazinghen
(50.8246°N, 1.6616°E)
Time: 07:24:22
(UTC+00:00)

SL-24 R/B - RUBIN 2 - Pass Details

Date: 09 April 2020
Orbit: 569 x 1026 km, 64.6° (Epoch: 02 June)

Event Time Altitude Azimuth Distance (km) Brightness Sun altitude
Rises 19:22:03 0° 204° (SSW) 3,267 7.3 -7.2°
Reaches altitude 10° 19:24:22 10° 201° (SSW) 2,410 6.6 -7.5°
Maximum altitude 19:29:53 58° 123° (ESE) 1,034 4.4 -8.3°
Drops below altitude 10° 19:36:06 10° 46° (NE) 2,711 6.6 -9.2°
Sets 19:38:50 0° 43° (NE) 3,709 7.4 -9.6°
